[[{"header":{"parameterUnit":"m.s-1","parameterCategory":1,"la1":30.2991,"la2":30.254,"lo1":-89.0895,"lo2":-89.0444,"dy":0.0017,"dx":0.0017,"nx":28,"ny":28,"refTime":"2025-08-06T03:00:00:Z","depth":0,"parameterNumber":2,"parameterNumberName":"U-component_of_WINDS"},"data":[0,0,0,0,0,0,0,0,0,0,0,0,0,0,0,0,0,0,0,0,0,0,0,0,0,0,0,0,0,0,0,0,0,0,0,0,0,0,0,0,0,0,0,0,0,0,0,0,0,0,0,0,0,0,0,0,0,0,1.9983,1.9984,0,2.0066,2.0067,2.0068,2.0084,2.0083,2.0082,2.0082,2.0165,2.0167,2.017,0,0,0,0,0,0,0,0,0,0,0,0,0,1.9836,1.9838,1.9983,1.9984,1.9985,2.0066,2.0067,2.0068,2.0084,2.0083,2.0082,2.0081,2.0164,2.0167,2.017,0,0,0,0,0,0,0,0,0,0,0,0,0,1.9907,1.9839,1.9983,2.0003,2.0005,2.0066,2.0067,2.0068,2.0084,2.0083,2.0082,2.0081,2.0163,2.0167,2.0171,2.0217,0,0,2.0184,2.0186,0,0,0,0,0,0,0,0,1.9903,1.9913,1.9999,2.0001,2.0004,2.0063,2.0046,2.0118,2.0084,2.0054,2.0082,2.008,2.0132,2.0138,2.0156,2.0221,2.0224,2.0184,2.0187,2.0189,2.019,0,0,0,0,0,0,0,1.9898,1.9909,2.0016,2.0,2.0003,2.0007,2.0016,2.0059,2.0097,2.0056,2.0058,2.0068,2.0133,2.0152,2.0158,2.0226,2.0184,2.0188,2.0191,2.0192,2.033,2.0331,0,0,0,0,0,0,1.989,1.9905,2.0013,2.0018,1.995,2.001,2.002,2.0045,2.0097,2.0104,2.0068,2.0068,2.0145,2.0153,2.0161,2.0217,2.0189,2.0193,2.0195,2.0329,2.033,2.0331,0,0,0,0,0,0,1.9887,1.99,2.001,1.9962,1.9976,2.0014,2.0042,2.0048,2.0067,2.0106,2.0112,2.0081,2.0145,2.0155,2.0203,2.022,2.0195,2.0198,2.0328,2.0329,2.0331,2.0329,0,0,0,0,0,0,1.9883,1.9898,1.9917,1.9962,1.9979,2.0051,2.0043,2.005,2.0074,2.0074,2.0119,2.0126,2.0145,2.0196,2.0207,2.0225,2.0202,2.0326,2.0328,2.033,2.0328,2.0331,2.0333,0,0,0,0,0,1.9877,1.9913,1.9918,1.9931,2.0003,2.0052,2.0061,2.0083,2.0075,2.0094,2.0119,2.0124,2.0217,2.0201,2.0213,2.0233,2.0325,2.0328,2.033,2.0327,2.033,2.0333,0,0,0,0,0,0,1.9868,1.992,1.9925,1.9977,2.001,2.0054,2.0078,2.0086,2.0121,2.012,2.0145,2.0155,2.02,2.0222,2.0203,2.0279,2.027,2.0275,2.0263,2.0267,2.027,2.0263,2.0205,0,0,0,0,0,1.9873,1.9909,1.9951,1.9993,2.0009,2.0041,2.0063,2.0077,2.0111,2.0125,2.0154,2.0187,2.0223,2.0246,2.0282,2.0331,2.034,2.0351,2.0354,2.0355,2.0359,2.0385,2.039,2.034,2.034,2.034,0,0,1.9881,1.9914,1.9935,1.9992,2.0019,2.0054,2.0052,2.0091,2.0117,2.0131,2.0177,2.0199,2.0238,2.0286,2.0308,2.0305,2.0375,2.0359,2.036,2.0363,2.0388,2.0393,2.0397,2.0341,2.0341,2.0341,0,0,1.9915,1.9944,1.9981,2.0008,2.0049,2.007,2.0079,2.0122,2.0137,2.0184,2.0195,2.0226,2.0289,2.0315,2.0337,2.0379,2.0385,2.039,2.0403,2.0428,2.0432,2.0436,2.0449,2.0454,2.0394,2.0394,2.0394,0,1.9921,1.9976,1.9999,2.0037,2.006,2.0075,2.0112,2.0137,2.0187,2.0203,2.0199,2.0276,2.0303,2.0357,2.0367,2.0385,2.0394,2.0385,2.043,2.0434,2.0437,2.0451,2.0456,2.0394,2.0394,2.0394,2.0394,0,1.998,2.0018,2.0042,2.0091,2.0118,2.0155,2.0182,2.0206,2.0218,2.0238,2.0285,2.0318,2.036,2.0374,2.0385,2.0429,2.0425,2.0425,2.0416,2.0442,2.0455,2.046,2.0395,2.0395,2.0395,2.0395,0,0,2.001,2.007,2.0079,2.01,2.0146,2.0176,2.0213,2.0254,2.0273,2.0307,2.0338,2.039,2.039,2.0414,2.0429,2.0451,2.0481,2.0448,2.0449,2.0452,2.0528,2.0527,2.0533,2.0485,2.0486,2.0487,2.0525,0,2.0049,2.0116,2.0137,2.0193,2.0227,2.0241,2.0273,2.0304,2.0324,2.0355,2.0377,2.0413,2.0411,2.0426,2.0448,2.0472,2.0496,2.047,2.0513,2.0514,2.0501,2.054,2.0539,2.0573,2.053,2.0531,2.0532,0,2.0103,2.0137,2.0196,2.0236,2.0251,2.028,2.0318,2.0349,2.0384,2.0397,2.0423,2.0436,2.0474,2.0464,2.0515,2.0497,2.0516,2.053,2.0532,2.0536,2.0523,2.0543,2.0584,2.0589,2.054,2.0539,2.0539,0,2.0117,2.0178,2.0221,2.0239,2.0288,2.0307,2.0328,2.0362,2.0385,2.0419,2.0433,2.0471,2.0491,2.0519,2.0541,2.0532,2.059,2.0582,2.0601,2.06,2.0612,2.0611,2.0655,2.0626,2.0626,2.0626,2.0626,0,2.0157,2.0192,2.0228,2.0254,2.0293,2.0317,2.0355,2.0376,2.0406,2.0436,2.0451,2.0478,2.0506,2.0537,2.0554,2.0593,2.0603,2.0613,2.0617,2.0611,2.061,2.0623,2.0621,2.0627,2.0627,2.0627,2.0627,0,2.0179,2.0205,2.0252,2.0294,2.0305,2.0332,2.0367,2.0392,2.0413,2.045,2.0461,2.0493,2.0529,2.0554,2.0602,2.0613,2.0655,2.066,2.0643,2.0645,2.0662,2.0659,2.0715,2.0723,2.069,2.069,2.0691,0,2.0202,2.0229,2.0274,2.0295,2.0316,2.035,2.0373,2.0397,2.042,2.0462,2.0481,2.0519,2.0551,2.0609,2.0636,2.0672,2.0676,2.0693,2.0681,2.0674,2.0674,2.0672,2.0674,2.0694,2.0695,2.0695,2.0695,0,2.0239,2.0251,2.0284,2.0321,2.0349,2.0379,2.041,2.0426,2.0455,2.0481,2.0519,2.0543,2.0591,2.0628,2.0666,2.0687,2.0695,2.0699,2.0705,2.0698,2.0687,2.0692,2.0647,2.0697,2.0697,2.0697,2.0697,2.0696,2.0262,2.0286,2.0321,2.0357,2.0382,2.041,2.0436,2.0459,2.0491,2.0532,2.0545,2.0584,2.0617,2.0669,2.069,2.072,2.0718,2.0727,2.0729,2.0731,2.073,2.0683,2.0727,2.0727,2.0727,2.0727,2.0727,0,2.0299,2.0322,2.0355,2.0397,2.0425,2.0431,2.0465,2.0488,2.0522,2.0552,2.0583,2.0625,2.0661,2.069,2.0727,2.0745,2.075,2.0754,2.0752,2.0756,2.073,2.0721,2.0749,2.0749,2.0749,2.0749,2.0749,2.0749,2.0321,2.0362,2.0377,2.043,2.0452,2.0491,2.0509,2.0535,2.0559,2.0606,2.0636,2.0655,2.0684,2.0723,2.0755,2.0763,2.0775,2.0778,2.0786,2.0761,2.0758,2.0756,2.0747,2.0781,2.0781,2.081,2.081,2.081]},{"header":{"parameterUnit":"m.s-1","parameterCategory":1,"la1":30.2991,"la2":30.254,"lo1":-89.0895,"lo2":-89.0444,"dy":0.0017,"dx":0.0017,"nx":28,"ny":28,"refTime":"2025-08-06T03:00:00:Z","depth":0,"parameterNumber":3,"parameterNumberName":"V-component_of_WINDS"},"data":[0,0,0,0,0,0,0,0,0,0,0,0,0,0,0,0,0,0,0,0,0,0,0,0,0,0,0,0,0,0,0,0,0,0,0,0,0,0,0,0,0,0,0,0,0,0,0,0,0,0,0,0,0,0,0,0,0,0,0.3007,0.3007,0,0.2983,0.2983,0.2983,0.295,0.295,0.2949,0.2948,0.2924,0.2924,0.2923,0,0,0,0,0,0,0,0,0,0,0,0,0,0.3025,0.3025,0.3008,0.3007,0.3007,0.2983,0.2983,0.2983,0.295,0.295,0.2949,0.2948,0.2924,0.2924,0.2923,0,0,0,0,0,0,0,0,0,0,0,0,0,0.3011,0.3025,0.3008,0.2988,0.2986,0.2983,0.2983,0.2983,0.295,0.295,0.2949,0.2948,0.2924,0.2924,0.2923,0.2938,0,0,0.2923,0.2923,0,0,0,0,0,0,0,0,0.3012,0.301,0.2991,0.2989,0.2987,0.2969,0.298,0.2968,0.2951,0.2964,0.2948,0.2948,0.2939,0.2938,0.2935,0.2937,0.2936,0.2923,0.2923,0.2923,0.2922,0,0,0,0,0,0,0,0.3013,0.3011,0.2998,0.2991,0.2988,0.298,0.2977,0.2978,0.2957,0.2963,0.296,0.2958,0.2938,0.2935,0.2934,0.2936,0.2923,0.2923,0.2922,0.2922,0.2948,0.2949,0,0,0,0,0,0,0.3017,0.3012,0.2999,0.2997,0.2998,0.298,0.2977,0.2975,0.2956,0.2953,0.2958,0.2956,0.2936,0.2935,0.2933,0.2949,0.2923,0.2922,0.2922,0.2947,0.2948,0.2949,0,0,0,0,0,0,0.3017,0.3016,0.3,0.3004,0.3001,0.2981,0.2979,0.2975,0.2973,0.2953,0.2949,0.296,0.2936,0.2934,0.2937,0.2948,0.2922,0.2922,0.2946,0.2947,0.2948,0.2981,0,0,0,0,0,0,0.3018,0.3016,0.3022,0.3004,0.3001,0.3004,0.298,0.2976,0.2972,0.2969,0.2953,0.295,0.2935,0.2938,0.2937,0.2947,0.2922,0.2945,0.2947,0.2948,0.2979,0.2983,0.2987,0,0,0,0,0,0.3019,0.3032,0.3022,0.3021,0.3008,0.3005,0.3003,0.2985,0.2973,0.2979,0.2966,0.295,0.2947,0.2938,0.2937,0.2947,0.2944,0.2946,0.2948,0.2977,0.2982,0.2987,0,0,0,0,0,0,0.3052,0.303,0.3018,0.3027,0.3018,0.2999,0.3006,0.2992,0.2986,0.2983,0.2962,0.2958,0.2964,0.2956,0.2947,0.296,0.2943,0.2945,0.2965,0.297,0.2974,0.2976,0.2922,0,0,0,0,0,0.306,0.306,0.304,0.3049,0.3045,0.3026,0.3024,0.3011,0.3001,0.2998,0.2985,0.2976,0.2973,0.2971,0.2967,0.2977,0.2973,0.2983,0.2987,0.2991,0.2993,0.2997,0.3001,0.2955,0.2955,0.2955,0,0,0.3077,0.3065,0.3066,0.3056,0.3047,0.3047,0.3024,0.3024,0.3024,0.2998,0.3,0.2991,0.2979,0.2986,0.2988,0.2979,0.3004,0.2993,0.2996,0.2996,0.2999,0.3004,0.3007,0.2956,0.2956,0.2956,0,0,0.3108,0.3099,0.3106,0.3098,0.3085,0.3072,0.3074,0.3057,0.305,0.3052,0.3032,0.3031,0.3025,0.3018,0.3013,0.304,0.3025,0.3039,0.306,0.3064,0.3068,0.3071,0.3081,0.3084,0.3041,0.3041,0.3041,0,0.3131,0.313,0.3111,0.3113,0.3109,0.3084,0.309,0.3083,0.307,0.3068,0.3058,0.305,0.304,0.3045,0.3051,0.3048,0.3049,0.3041,0.3069,0.3072,0.3075,0.3083,0.3087,0.3043,0.3043,0.3042,0.3042,0,0.3159,0.3159,0.3165,0.3153,0.3149,0.3153,0.3134,0.3133,0.312,0.3108,0.311,0.3097,0.309,0.309,0.3077,0.3092,0.3087,0.3073,0.3055,0.3081,0.3089,0.3092,0.3045,0.3045,0.3044,0.3044,0,0,0.3211,0.3187,0.319,0.3184,0.3168,0.3167,0.3169,0.3162,0.3161,0.3152,0.3154,0.3149,0.3137,0.3131,0.3118,0.3121,0.3143,0.3107,0.3107,0.3114,0.3158,0.3168,0.3173,0.3133,0.3133,0.3134,0.3159,0,0.3239,0.3243,0.3225,0.3233,0.3232,0.3208,0.321,0.32,0.3189,0.3186,0.3173,0.3171,0.3154,0.3151,0.3153,0.314,0.3152,0.3138,0.3134,0.3134,0.3138,0.3177,0.3188,0.3212,0.3162,0.3162,0.3163,0,0.3273,0.3266,0.3274,0.3256,0.3255,0.3258,0.3249,0.3246,0.3235,0.3226,0.322,0.3204,0.3204,0.3187,0.3188,0.3179,0.3176,0.3169,0.3169,0.3169,0.315,0.3177,0.3219,0.3223,0.3167,0.3167,0.3167,0,0.331,0.3302,0.3306,0.3301,0.3281,0.3283,0.3275,0.3262,0.3259,0.3251,0.3248,0.3241,0.3237,0.3231,0.3213,0.3202,0.3215,0.3197,0.3208,0.3208,0.3212,0.3212,0.3255,0.321,0.321,0.321,0.321,0,0.3343,0.3349,0.3322,0.3324,0.333,0.3309,0.3314,0.3304,0.3292,0.3292,0.3271,0.3271,0.3247,0.3244,0.323,0.3232,0.3231,0.3223,0.322,0.3225,0.3226,0.3223,0.3221,0.3211,0.3211,0.3211,0.3211,0,0.3386,0.3368,0.337,0.3351,0.3346,0.3351,0.3334,0.3335,0.3322,0.3321,0.332,0.33,0.3295,0.3276,0.3267,0.3258,0.3264,0.3257,0.3269,0.3266,0.3278,0.3277,0.3321,0.3325,0.3278,0.3278,0.3279,0,0.3408,0.3412,0.3393,0.3391,0.3383,0.3381,0.3377,0.3356,0.3352,0.3339,0.3341,0.3335,0.3329,0.3322,0.3306,0.3299,0.3291,0.3307,0.329,0.3295,0.3291,0.3291,0.3291,0.331,0.3311,0.3312,0.3312,0,0.345,0.3441,0.3436,0.3428,0.3424,0.3416,0.3408,0.3407,0.3384,0.3381,0.3376,0.3371,0.3361,0.3355,0.3345,0.3336,0.332,0.3317,0.3319,0.3325,0.3332,0.3328,0.3279,0.3316,0.3316,0.3316,0.3315,0.3315,0.3483,0.3485,0.3471,0.3467,0.3458,0.345,0.345,0.3437,0.3432,0.3423,0.341,0.3407,0.3393,0.3378,0.337,0.3367,0.3358,0.3361,0.3362,0.3363,0.3366,0.3332,0.3365,0.3365,0.3364,0.3364,0.3364,0,0.3523,0.3513,0.3509,0.3497,0.3493,0.3479,0.3468,0.3466,0.3463,0.3452,0.3446,0.344,0.3433,0.3416,0.3408,0.3408,0.3401,0.3407,0.3407,0.3405,0.3374,0.3373,0.3413,0.3413,0.3413,0.3413,0.3413,0.3413,0.3544,0.3546,0.3535,0.3533,0.3523,0.3519,0.3514,0.3507,0.3498,0.3492,0.3487,0.3476,0.3462,0.3453,0.3446,0.3441,0.3439,0.3447,0.344,0.3412,0.3407,0.3403,0.3402,0.3447,0.3447,0.3471,0.3471,0.3471]}]]